EB2EMZ-3 Weather Reports


time (UTC)temp
C
wind
direction
speed
KPH
gust
KPH
rain 1hr
cm
rain 24hr
cm
rain mn
cm
humidity
%
barometer
mb
20260506233428 14 22 4.8 8.0 0.00 0.00 0.00 76 1012.7
20260506232928 14 45 8.0 8.0 0.00 0.00 0.00 76 1012.5
20260506232428 15 22 4.8 4.8 0.00 0.00 0.00 75 1012.6
20260506231928 15 0 3.2 6.4 0.00 0.00 0.00 75 1012.6
20260506231428 15 22 6.4 6.4 0.00 0.00 0.00 75 1012.6
20260506230928 15 22 1.6 4.8 0.00 0.00 0.00 73 1012.6
20260506230428 15 0 3.2 3.2 0.00 0.00 0.00 73 1012.7
20260506225928 15 45 1.6 1.6 0.00 0.00 0.00 73 1012.6
20260506225428 15 45 0.0 8.0 0.00 0.00 0.00 73 1012.5
20260506224928 15 45 8.0 8.0 0.00 0.00 0.00 73 1012.6
20260506224429 16 135 0.0 0.0 0.00 0.00 0.00 73 1012.6
20260506223928 16 157 0.0 0.0 0.00 0.00 0.00 72 1012.6
20260506223429 16 157 0.0 0.0 0.00 0.00 0.00 72 1012.6
20260506222929 16 157 0.0 0.0 0.00 0.00 0.00 72 1012.5
20260506222429 16 157 0.0 0.0 0.00 0.00 0.00 71 1012.5
20260506221929 16 157 0.0 0.0 0.00 0.00 0.00 71 1012.4
20260506221429 16 157 0.0 0.0 0.00 0.00 0.00 71 1012.4
20260506220929 16 157 0.0 0.0 0.00 0.00 0.00 71 1012.3
20260506220429 16 157 0.0 0.0 0.00 0.00 0.00 71 1012.4
20260506215929 16 157 0.0 0.0 0.00 0.00 0.00 71 1012.4
20260506215429 16 157 0.0 0.0 0.00 0.00 0.00 70 1012.4
20260506214929 16 180 0.0 0.0 0.00 0.00 0.00 70 1012.5
20260506214429 16 225 0.0 0.0 0.00 0.00 0.00 70 1012.4
20260506213929 16 135 0.0 0.0 0.00 0.00 0.00 70 1012.4
20260506213429 16 135 0.0 0.0 0.00 0.00 0.00 70 1012.4
20260506212929 17 135 0.0 3.2 0.00 0.00 0.00 69 1012.4
20260506212429 17 135 3.2 3.2 0.00 0.00 0.00 69 1012.2
20260506211929 17 112 0.0 1.6 0.00 0.00 0.00 68 1012.3
20260506211429 17 112 1.6 1.6 0.00 0.00 0.00 68 1012.3
20260506210929 17 315 0.0 0.0 0.00 0.00 0.00 68 1012.3
20260506210429 17 270 0.0 0.0 0.00 0.00 0.00 68 1012.3
20260506205929 17 180 0.0 0.0 0.00 0.00 0.00 68 1012.1
20260506205429 17 180 0.0 3.2 0.00 0.00 0.00 68 1012.2
20260506204929 17 180 3.2 3.2 0.00 0.00 0.00 68 1012.1
20260506204429 17 202 0.0 3.2 0.00 0.00 0.00 67 1012.2
20260506203929 17 135 3.2 3.2 0.00 0.00 0.00 67 1012.0
20260506203429 17 180 3.2 3.2 0.00 0.00 0.00 67 1012.0
20260506202929 17 157 0.0 0.0 0.00 0.00 0.00 67 1012.1
20260506202429 17 157 0.0 8.0 0.00 0.00 0.00 67 1012.1
20260506201929 17 225 8.0 8.0 0.00 0.00 0.00 67 1011.8
20260506201429 17 225 8.0 9.7 0.00 0.00 0.00 67 1011.7
20260506200929 17 247 4.8 6.4 0.00 0.00 0.00 67 1011.7
20260506200429 17 247 6.4 6.4 0.00 0.00 0.00 68 1011.5
20260506195929 17 225 1.6 9.7 0.00 0.00 0.00 68 1011.5
20260506195429 17 247 6.4 8.0 0.00 0.00 0.00 68 1011.4
20260506194929 17 157 6.4 14.5 0.00 0.00 0.00 68 1011.4
20260506194429 17 247 14.5 14.5 0.00 0.00 0.00 68 1011.3
20260506193929 17 225 3.2 3.2 0.00 0.00 0.00 67 1011.2
20260506193429 17 225 0.0 0.0 0.00 0.00 0.00 67 1011.1
20260506192929 17 225 0.0 1.6 0.00 0.00 0.00 67 1011.2
20260506192429 17 225 1.6 4.8 0.00 0.00 0.00 67 1011.0
20260506191929 17 180 4.8 4.8 0.00 0.00 0.00 67 1011.1
20260506191429 17 225 4.8 8.0 0.00 0.00 0.00 66 1010.9
20260506190929 17 247 8.0 8.0 0.00 0.00 0.00 66 1010.9
20260506190429 17 225 6.4 9.7 0.00 0.00 0.00 66 1010.8
20260506185929 17 247 9.7 11.3 0.00 0.00 0.00 66 1010.8
20260506185429 18 202 1.6 4.8 0.00 0.00 0.00 67 1010.7
20260506184929 18 225 3.2 8.0 0.00 0.00 0.00 66 1010.6
20260506184429 18 225 1.6 3.2 0.00 0.00 0.00 66 1010.6
20260506183929 18 225 0.0 6.4 0.00 0.00 0.00 66 1010.5
20260506183429 18 247 0.0 0.0 0.00 0.00 0.00 66 1010.6
20260506182931 18 247 0.0 9.7 0.00 0.00 0.00 66 1010.5
20260506182429 18 180 1.6 11.3 0.00 0.00 0.00 66 1010.4
20260506181929 18 225 11.3 16.1 0.00 0.00 0.00 66 1010.5
20260506181429 18 202 1.6 8.0 0.00 0.00 0.00 66 1010.4
20260506180929 18 247 8.0 12.9 0.00 0.00 0.00 66 1010.1
20260506180429 18 225 12.9 12.9 0.00 0.00 0.00 66 1010.3
20260506175929 18 202 3.2 9.7 0.00 0.00 0.00 65 1010.0
20260506175429 18 247 8.0 8.0 0.00 0.00 0.00 65 1009.9
20260506174929 18 247 8.0 9.7 0.00 0.00 0.00 65 1009.9
20260506174429 18 247 4.8 11.3 0.00 0.00 0.00 64 1010.2
20260506173929 18 247 11.3 17.7 0.00 0.00 0.00 64 1010.1
20260506173430 18 225 17.7 17.7 0.00 0.00 0.00 64 1010.1
20260506172929 18 225 4.8 6.4 0.00 0.00 0.00 64 1010.1
20260506172429 19 225 6.4 6.4 0.00 0.00 0.00 64 1010.1
20260506171929 19 135 0.0 0.0 0.00 0.00 0.00 64 1010.1
20260506171430 19 135 0.0 17.7 0.00 0.00 0.00 64 1010.1
20260506170930 19 247 0.0 0.0 0.00 0.00 0.00 63 1010.1
20260506170430 20 247 0.0 6.4 0.00 0.00 0.00 63 1009.9
20260506165930 20 202 6.4 9.7 0.00 0.00 0.00 60 1010.0
20260506165430 20 225 9.7 9.7 0.00 0.00 0.00 60 1010.0
20260506164930 20 247 8.0 8.0 0.00 0.00 0.00 59 1009.9
20260506164430 20 247 8.0 8.0 0.00 0.00 0.00 59 1009.9
20260506163930 20 247 8.0 8.0 0.00 0.00 0.00 59 1009.9
20260506163430 20 180 8.0 8.0 0.00 0.00 0.00 59 1009.9
20260506162930 20 180 8.0 9.7 0.00 0.00 0.00 59 1009.7
20260506162430 20 225 8.0 8.0 0.00 0.00 0.00 58 1009.7
20260506161930 20 225 8.0 8.0 0.00 0.00 0.00 58 1009.7
20260506161430 20 135 8.0 8.0 0.00 0.00 0.00 57 1009.7
20260506160930 20 202 6.4 6.4 0.00 0.00 0.00 57 1009.7
20260506160430 21 135 3.2 3.2 0.00 0.00 0.00 57 1009.6
20260506155930 21 135 3.2 9.7 0.00 0.00 0.00 57 1009.7
20260506155430 21 225 9.7 9.7 0.00 0.00 0.00 56 1009.7
20260506154930 21 202 4.8 8.0 0.00 0.00 0.00 56 1009.7
20260506154430 21 202 0.0 12.9 0.00 0.00 0.00 56 1009.6
20260506153930 21 135 12.9 12.9 0.00 0.00 0.00 55 1009.7
20260506153430 21 135 12.9 12.9 0.00 0.00 0.00 55 1009.7
20260506152930 21 270 8.0 11.3 0.00 0.00 0.00 55 1009.8
20260506152430 21 202 11.3 12.9 0.00 0.00 0.00 55 1009.8
20260506151930 21 180 12.9 12.9 0.00 0.00 0.00 55 1009.8
20260506151430 21 180 0.0 8.0 0.00 0.00 0.00 55 1009.8
20260506150930 21 180 8.0 8.0 0.00 0.00 0.00 55 1009.8
20260506150430 21 112 6.4 6.4 0.00 0.00 0.00 56 1009.9
20260506145930 21 202 1.6 1.6 0.00 0.00 0.00 55 1010.1
20260506145430 21 202 0.0 6.4 0.00 0.00 0.00 54 1010.0
20260506144930 21 270 6.4 6.4 0.00 0.00 0.00 55 1010.0
20260506144430 21 247 4.8 11.3 0.00 0.00 0.00 55 1010.2
20260506143930 21 180 11.3 11.3 0.00 0.00 0.00 55 1010.2
20260506143430 21 112 3.2 9.7 0.00 0.00 0.00 55 1010.2
20260506142930 21 225 8.0 8.0 0.00 0.00 0.00 53 1010.3
20260506142430 20 180 0.0 0.0 0.00 0.00 0.00 54 1010.2